Spokane, WA
on Friday, January 18, 2013

Friday
Previous Day Next Day
Daily Summary
 ActualAverageRecord
Temperature
Mean Temperature °F / °C 30°F / -1°C  
Max Temperature 27°F / -3°C 35°F / 2°C 54°F / 12°C (1919)
Min Temperature 10°F / -12°C 25°F / -4°C -28°F / -33°C (1883)
Degree Days
Heating Degree Days 46 35  
Month to date heating degree days 752 654  
Since 1 July heating degree days 3177 3488  
Cooling Degree Days 0 0  
Month to date cooling degree days 0 0  
Year to date cooling degree days 0 0  
Moisture
Dew Point 15°F / -9°C   
Average Humidity 88    
Maximum Humidity 92    
Minimum Humidity 84    
Precipitation
Precipitation 0.00 in / 0.00 cm 0.06 in / 1.52 cm 0.60 in / 1.52 cm (1932)
Month to date precipitation 1.05 1.12  
Year to date precipitation 1.05 1.12  
Snow
Snow 0.00 in / 0.00 cm 0.30 in / 0.76 cm 4.30 in / 10.92 cm (1913)
Month to date snowfall 11.8 7.7  
Since 1 July snowfall 35.8 29.8  
Snow Depth 2.00 in / 5.08 cm   
Wind
Wind Speed 1 mph / 2 km/h   
Max Wind Speed 6 mph / 10 km/h   
Max Gust Speed 8 mph / 13 km/h   
Visibility 2 miles / 4 kilometers   
Events Fog   

Key: T is trace of precipitation, MM is missing value
Source: NWS Daily Summary
Time(PST)TemperatureDew PointHumidity Pressure Visibility Wind DirectionWind SpeedGust SpeedPrecipitationEvents Conditions
12:53 AM 18.0°F / -7.8°C 15.1°F / -9.4°C 88% 30.41 in / 1029.6 hPa 5.0 miles / 8.0 kilometers Calm Calm - N/A   Overcast
1:17 AM 19.4°F / -7.0°C 15.8°F / -9.0°C 86% 30.30 in / 1026.0 hPa 4.0 miles / 6.4 kilometers SSE 3.5 mph / 5.6 km/h - N/A   Overcast
1:53 AM 19.0°F / -7.2°C 16.0°F / -8.9°C 88% 30.41 in / 1029.6 hPa 1.5 miles / 2.4 kilometers South 3.5 mph / 5.6 km/h - N/A   Overcast
2:53 AM 18.0°F / -7.8°C 15.1°F / -9.4°C 88% 30.40 in / 1029.4 hPa 0.2 miles / 0.4 kilometers Calm Calm - N/A   Overcast
3:53 AM 19.0°F / -7.2°C 17.1°F / -8.3°C 92% 30.39 in / 1028.9 hPa 0.2 miles / 0.4 kilometers Calm Calm - N/A Fog Light Freezing Fog
4:31 AM 19.4°F / -7.0°C 15.8°F / -9.0°C 86% 30.28 in / 1025.3 hPa 0.2 miles / 0.4 kilometers ENE 3.5 mph / 5.6 km/h - N/A   Overcast
4:53 AM 19.0°F / -7.2°C 16.0°F / -8.9°C 88% 30.38 in / 1028.6 hPa 0.2 miles / 0.4 kilometers ENE 3.5 mph / 5.6 km/h - N/A   Overcast
5:53 AM 19.0°F / -7.2°C 16.0°F / -8.9°C 88% 30.36 in / 1027.9 hPa 0.2 miles / 0.4 kilometers Calm Calm - N/A Fog Light Freezing Fog
6:17 AM 19.4°F / -7.0°C 15.8°F / -9.0°C 86% 30.26 in / 1024.6 hPa 0.8 miles / 1.2 kilometers NE 3.5 mph / 5.6 km/h - N/A   Overcast
6:28 AM 19.4°F / -7.0°C 15.8°F / -9.0°C 86% 30.26 in / 1024.6 hPa 2.0 miles / 3.2 kilometers NNE 3.5 mph / 5.6 km/h - N/A   Overcast
6:53 AM 19.0°F / -7.2°C 16.0°F / -8.9°C 88% 30.36 in / 1028.1 hPa 3.0 miles / 4.8 kilometers Calm Calm - N/A   Overcast
7:53 AM 19.0°F / -7.2°C 16.0°F / -8.9°C 88% 30.37 in / 1028.2 hPa 1.5 miles / 2.4 kilometers NE 3.5 mph / 5.6 km/h - N/A   Overcast
8:33 AM 19.4°F / -7.0°C 15.8°F / -9.0°C 86% 30.25 in / 1024.3 hPa 3.0 miles / 4.8 kilometers South 3.5 mph / 5.6 km/h - N/A   Mostly Cloudy
8:53 AM 19.9°F / -6.7°C 17.1°F / -8.3°C 89% 30.35 in / 1027.8 hPa 4.0 miles / 6.4 kilometers Calm Calm - N/A   Mostly Cloudy
9:53 AM 19.9°F / -6.7°C 18.0°F / -7.8°C 92% 30.37 in / 1028.3 hPa 5.0 miles / 8.0 kilometers NNE 3.5 mph / 5.6 km/h - N/A   Mostly Cloudy
10:53 AM 21.0°F / -6.1°C 18.0°F / -7.8°C 88% 30.37 in / 1028.3 hPa 4.0 miles / 6.4 kilometers NNE 4.6 mph / 7.4 km/h - N/A   Overcast
11:53 AM 21.9°F / -5.6°C 19.0°F / -7.2°C 89% 30.35 in / 1027.5 hPa 5.0 miles / 8.0 kilometers Calm Calm - N/A   Mostly Cloudy
12:53 PM 24.1°F / -4.4°C 21.0°F / -6.1°C 88% 30.32 in / 1026.7 hPa 6.0 miles / 9.7 kilometers South 4.6 mph / 7.4 km/h - N/A   Mostly Cloudy
1:53 PM 25.0°F / -3.9°C 21.9°F / -5.6°C 88% 30.29 in / 1025.5 hPa 8.0 miles / 12.9 kilometers East 3.5 mph / 5.6 km/h - N/A Fog Mostly Cloudy
2:53 PM 24.1°F / -4.4°C 21.0°F / -6.1°C 88% 30.32 in / 1026.6 hPa 7.0 miles / 11.3 kilometers North 3.5 mph / 5.6 km/h - N/A Fog Scattered Clouds
3:46 PM 21.2°F / -6.0°C 19.4°F / -7.0°C 93% 30.23 in / 1023.6 hPa 2.0 miles / 3.2 kilometers Calm Calm - N/A   Mostly Cloudy
3:53 PM 21.9°F / -5.6°C 19.0°F / -7.2°C 89% 30.33 in / 1027.0 hPa 2.0 miles / 3.2 kilometers Calm Calm - N/A   Mostly Cloudy
4:25 PM 21.2°F / -6.0°C 19.4°F / -7.0°C 93% 30.24 in / 1023.9 hPa 2.5 miles / 4.0 kilometers Calm Calm - N/A   Mostly Cloudy
4:33 PM 21.2°F / -6.0°C 19.4°F / -7.0°C 93% 30.23 in / 1023.6 hPa 3.0 miles / 4.8 kilometers Calm Calm - N/A   Mostly Cloudy
4:53 PM 21.0°F / -6.1°C 18.0°F / -7.8°C 88% 30.34 in / 1027.3 hPa 3.0 miles / 4.8 kilometers NE 3.5 mph / 5.6 km/h - N/A   Mostly Cloudy
5:53 PM 19.9°F / -6.7°C 18.0°F / -7.8°C 92% 30.34 in / 1027.4 hPa 4.0 miles / 6.4 kilometers Calm Calm - N/A   Mostly Cloudy
6:30 PM 15.8°F / -9.0°C 14.0°F / -10.0°C 93% 30.24 in / 1023.9 hPa 2.0 miles / 3.2 kilometers Calm Calm - N/A   Scattered Clouds
6:37 PM 15.8°F / -9.0°C 12.2°F / -11.0°C 86% 30.24 in / 1023.9 hPa 1.0 miles / 1.6 kilometers Calm Calm - N/A   Scattered Clouds
6:53 PM 17.1°F / -8.3°C 14.0°F / -10.0°C 88% 30.36 in / 1027.9 hPa 1.0 miles / 1.6 kilometers Calm Calm - N/A   Scattered Clouds
7:07 PM 17.6°F / -8.0°C 14.0°F / -10.0°C 86% 30.25 in / 1024.3 hPa 2.0 miles / 3.2 kilometers Calm Calm - N/A   Scattered Clouds
7:22 PM 17.6°F / -8.0°C 12.2°F / -11.0°C 79% 30.25 in / 1024.3 hPa 3.0 miles / 4.8 kilometers ENE 3.5 mph / 5.6 km/h - N/A   Scattered Clouds
7:53 PM 12.9°F / -10.6°C 9.0°F / -12.8°C 84% 30.37 in / 1028.4 hPa 3.0 miles / 4.8 kilometers Calm Calm - N/A   Scattered Clouds
8:11 PM 12.2°F / -11.0°C 8.6°F / -13.0°C 85% 30.25 in / 1024.3 hPa 2.5 miles / 4.0 kilometers SSW 3.5 mph / 5.6 km/h - N/A   Scattered Clouds
8:38 PM 12.2°F / -11.0°C 10.4°F / -12.0°C 92% 30.26 in / 1024.6 hPa 1.0 miles / 1.6 kilometers Calm Calm - N/A   Scattered Clouds
8:44 PM 12.2°F / -11.0°C 10.4°F / -12.0°C 92% 30.26 in / 1024.6 hPa 0.5 miles / 0.8 kilometers Calm Calm - N/A Fog Light Freezing Fog
8:53 PM 12.9°F / -10.6°C 10.9°F / -11.7°C 92% 30.38 in / 1028.7 hPa 0.5 miles / 0.8 kilometers Calm Calm - N/A Fog Light Freezing Fog
9:11 PM 12.2°F / -11.0°C 10.4°F / -12.0°C 92% 30.27 in / 1024.9 hPa 0.2 miles / 0.4 kilometers Calm Calm - N/A Fog Light Freezing Fog
9:23 PM 12.2°F / -11.0°C 8.6°F / -13.0°C 85% 30.27 in / 1024.9 hPa 0.2 miles / 0.4 kilometers Calm Calm - N/A Fog Light Freezing Fog
9:53 PM 12.0°F / -11.1°C 10.0°F / -12.2°C 92% 30.40 in / 1029.2 hPa 0.1 miles / 0.2 kilometers Calm Calm - N/A Fog Light Freezing Fog
10:39 PM 12.2°F / -11.0°C 8.6°F / -13.0°C 85% 30.28 in / 1025.3 hPa 0.5 miles / 0.8 kilometers Calm Calm - N/A Fog Light Freezing Fog
10:53 PM 12.9°F / -10.6°C 10.9°F / -11.7°C 92% 30.40 in / 1029.2 hPa 0.1 miles / 0.2 kilometers Calm Calm - N/A Fog Light Freezing Fog
11:53 PM 12.9°F / -10.6°C 10.0°F / -12.2°C 88% 30.41 in / 1029.6 hPa 0.1 miles / 0.2 kilometers Calm Calm - N/A Fog Light Freezing Fog
Moon Phase
Jan. 18 Jan. 18 Jan. 26 Feb. 03 Feb. 10
Sunrise:07:31 AM (PST) Moon Rise:10:36 AM (PST)1/18
Sunset:04:30 PM (PST) Moon Set:No Moon Set/

Copyright © 2014 The Weather Underground, Inc.